Regional Weather Roundup
Issued by NWS Upton, NY

Home | Current Version | Previous Version | Text Only | Print | Product List | Glossary On
Versions: 1 2 3 4 5 6 7 8 9 10 11 12 13 14 15 16 17 18 19 20 21 22 23 24 25 26 27 28 29 30 31 32 33 34 35 36 37 38 39 40 41 42 43 44 45 46 47 48 49 50
000
ASUS41 KOKX 292205
RWROKX

REGIONAL WEATHER ROUNDUP
NATIONAL WEATHER SERVICE NEW YORK NY
600 PM EDT TUE JUL 29 2014

NOTE: "FAIR" INDICATES FEW OR NO CLOUDS BELOW 12,000 FEET WITH NO
SIGNIFICANT WEATHER AND/OR OBSTRUCTIONS TO VISIBILITY.

NYZ071-072-176-178-NJZ106-104-292300-
NEW YORK CITY METRO AREA


CITY           SKY/WX    TMP DP  RH WIND       PRES   REMARKS
CENTRAL PARK   MOSUNNY   74  49  41 VRB5      29.94R
LAGUARDIA APRT PTSUNNY   75  50  41 NW8       29.90R
KENNEDY INTL   PTSUNNY   76  47  35 W13       29.91R
NEWARK/LIBERTY PTSUNNY   76  49  38 W8        29.91R
BRNX BOT. GARD   N/A     75  48  38 NW2       29.94R
TETERBORO      PTSUNNY   78  48  34 NW9       29.90R
$$

NYZ177-179-078>081-292300-
LONG ISLAND NEW YORK

CITY           SKY/WX    TMP DP  RH WIND       PRES   REMARKS
FARMINGDALE    CLOUDY    74  49  41 NW6       29.90S
ISLIP          PTSUNNY   77  49  37 NW8       29.89R
SHIRLEY        SUNNY     76  51  41 NW7       29.91R
WESTHAMPTON    SUNNY     74  55  51 SW9       29.92R
MONTAUK POINT    N/A     76  55  48 W8        29.91R
$$

NYZ052-065-067-292300-
HUDSON VALLEY

CITY           SKY/WX    TMP DP  RH WIND       PRES   REMARKS
WHITE PLAINS   MOSUNNY   71  50  47 W7        29.91R
NEWBURGH       PTSUNNY   72  52  49 NW7       29.93R
MONTGOMERY     CLOUDY    70  52  52 NW7       29.92R
POUGHKEEPSIE   CLOUDY    73  52  47 NW5       29.90R
ALBANY         PTSUNNY   71  54  54 W6        29.90R
$$

NJZ001-105-106-008-010-013-015-019>022-104-292300-
NEW JERSEY

CITY           SKY/WX    TMP DP  RH WIND       PRES   REMARKS
NEWARK/LIBERTY PTSUNNY   76  49  38 W8        29.91R
TETERBORO      PTSUNNY   78  48  34 NW9       29.90R
CALDWELL       CLOUDY    73  50  44 NW6       29.92R
MORRISTOWN     MOSUNNY   72  52  49 N8        29.93R
SOMERVILLE     CLOUDY    74  50  42 NW7       29.91R
LINDEN         MOCLDY    76  49  37 NW10      29.94R
SUSSEX         CLOUDY    71  53  52 W7        29.94R
ANDOVER          N/A     71  52  50 NW5       29.94R
TRENTON        CLOUDY    73  51  46 W3        29.93R
MILLVILLE      CLOUDY    71  58  63 SW3       29.93R
ATLANTIC CITY  CLOUDY    74  55  51 W5        29.93R
WRIGHTSTOWN    CLOUDY    73  54  52 NW6       29.91R
TOMS RIVER     PTSUNNY   73  54  49 NW5       29.93S
BELMAR         CLOUDY    73  54  49 W5        29.93R
$$

PAZ047>061-062-071-292300-
EASTERN PENNSYLVANIA

CITY           SKY/WX    TMP DP  RH WIND       PRES   REMARKS
PHILADELPHIA   CLOUDY    74  53  48 NW5       29.94R
ALLENTOWN      CLOUDY    72  51  47 N6        29.94R
SCRANTON       CLOUDY    69  48  47 N5        29.96R
$$

CTZ002-004>006-009-010-012-RIZ004-006-007-MAZ004-011-015-292300-
SOUTHERN NEW ENGLAND
 IN CT

CITY           SKY/WX    TMP DP  RH WIND       PRES   REMARKS
BRADLEY INTL   PTSUNNY   75  50  41 NW8       29.89R
HARTFORD       PTSUNNY   74  47  38 NW8       29.89R
DANBURY        PTSUNNY   71  52  50 W7        29.93R
WTRBRY/OXFORD  PTSUNNY   70  54  56 CALM      29.94R
BRIDGEPORT     PTSUNNY   75  55  49 SW10      29.89S
MERIDEN        CLOUDY    73  51  46 W6        29.90R
NEW HAVEN      PTSUNNY   75  55  49 SW6       29.90R
CHESTER        FAIR      70  57  64 SW5       29.91S
GROTON         SUNNY     72  58  61 W9        29.88S
WILLIMANTIC    PTSUNNY   74  54  49 NW6       29.90R

 IN RI

CITY           SKY/WX    TMP DP  RH WIND       PRES   REMARKS
PROVIDENCE     MOSUNNY   76  53  44 W12       29.88R
BLOCK ISLAND   SUNNY     72  59  64 SW14      29.91R
WESTERLY       SUNNY     74  59  59 W9        29.90R

 IN MA

CITY           SKY/WX    TMP DP  RH WIND       PRES   REMARKS
BOSTON         PTSUNNY   70  59  68 SE7       29.87R
WORCESTER      SUNNY     69  53  56 W10       29.91R
WESTFIELD      MOSUNNY   74  49  41 W9        29.90R
PROVINCETOWN   SUNNY     73  63  68 CALM      29.88R
NANTUCKET      SUNNY     69  62  78 S10       29.91R
$$

ANZ330-335-338-340-345-350-353-355-292300-
COASTAL MARINE OBSERVATIONS


STATION/POSITION TIME  SKY/WX   TEMP    WIND        PRES    VSBY  WAVE
                                AIR SEA DIR/SP/G                  HT/PER
                 (UTC)          (F)     (DEG/KT/KT) (MB)    (MI)  (FT/S)
NY HARB ENTRANCE NOT AVBL
4S FIRE IS       NOT AVBL
23SW MTP         2200            72 71              1012.4          4/ 8
HUDSON CANYON    2200            72 75  280/  2/  4 1013.6          3/ 8
EXECUTION ROCKS  2200            74 71  340/ 10/ 14   N/A
WESTERN LI SOUND 2200            74     320/  6/  8   N/A           0
CENTRAL LI SOUND 2100            72 71  260/ 10/ 12   N/A           1/ 3
EASTERN LI SOUND 2100            70 68  260/ 12/ 14   N/A
ROBBINS REEF     2200            74     290/  9/ 12   N/A
$$


>>>>>>>>>>>>>>>>>>>>>>>>>>>> KEY <<<<<<<<<<<<<<<<<<<<<<<<<<<
>                                                          <
>     SKY/WX - SKY CONDITION/PRESENT WEATHER               <
>     TMP    - TEMPERATURE IN FAHRENHEIT                   <
>     DP     - DEWPOINT IN FAHRENHEIT                      <
>     RH     - RELATIVE HUMIDITY IN PERCENT                <
>     WIND   - DIRECTION AND SPEED IN MPH                  <
>     PRES   - MEAN SEA LEVEL PRESSURE IN INCHES OF HG     <
>     WCI    - WIND CHILL INDEX                            <
>     VSB    - VISIBILITY IN MILES                         <
>     HX     - HEAT INDEX                                  <
>     TC     - TEMPERATURE IN CELSIUS                      <
>     VRB    - VARIABLE WIND DIRECTION                     <
>                                                          <
>>>>>>>>>>>>>>>>>>>>>>>>>>>> KEY <<<<<<<<<<<<<<<<<<<<<<<<<<<




USA.gov is the U.S. government's official web portal to all federal, state and local government web resources and services.